NW Arkansas Airport, AR

10:09 AM CDT on July 24, 2017 (GMT -0500)
Northwest Arkansas Regional

Weather History for KXNA - January, 2013

Change the Weather History Date:

Thursday, January 10, 2013

  Actual Average (KVBT) Record (KVBT)
Temperature  
Mean Temperature 52 °F -  
Max Temperature 57 °F 40 °F 67 °F (1960)
Min Temperature 46 °F 18 °F -15 °F (1977)
Degree Days  
Heating Degree Days 14    
Growing Degree Days 2 (Base 50)    
Moisture  
Dew Point 49 °F    
Average Humidity 96    
Maximum Humidity 100    
Minimum Humidity 83    
Precipitation  
Precipitation 0.13 in - - ()
Sea Level Pressure  
Sea Level Pressure 29.95 in    
Wind  
Wind Speed 13 mph (SE)    
Max Wind Speed 18 mph    
Max Gust Speed 28 mph    
Visibility 9 miles    
Events Rain    
Averages and records for this station are not official NWS values.
T = Trace of Precipitation, MM = Missing Value Source: NWS Daily Summary

Daily Weather History Graph

Daily Weather History Graph

Search for Another Location

Airport or City:

Trip Planner

Search our weather history database for the weather conditions in past years. The results will help you decide how hot, cold, wet, or windy it might be!

Date:

Astronomy

Jan. 10, 2013 Rise Set
Actual Time 7:28 AM CST 5:21 PM CST
Civil Twilight 7:00 AM CST 5:49 PM CST
Nautical Twilight 6:28 AM CST 6:21 PM CST
Astronomical Twilight 5:57 AM CST 6:52 PM CST
Moon 6:09 AM CST (1/10) 4:29 PM CST (1/10)
Length of Visible Light 10h 49m
Length of Day
9h 52m
Waning Crescent, 2% of the Moon is Illuminated
Jan 10
Waning Crescent
Jan 11
New
Jan 18
First Quarter
Jan 26
Full
Feb 3
Last Quarter

Hourly Weather History & Observations

Time (CST) Temp. Windchill Dew Point Humidity Pressure Visibility Wind Dir Wind Speed Gust Speed Precip Events Conditions
12:53 AM 46.9 °F - 42.1 °F 83% 30.18 in 10.0 mi East 18.4 mph 27.6 mph 0.00 in Rain Light Rain
1:53 AM 46.9 °F - 43.0 °F 86% 30.16 in 10.0 mi East 16.1 mph - 0.00 in   Mostly Cloudy
2:53 AM 46.9 °F - 43.0 °F 86% 30.15 in 10.0 mi East 15.0 mph - N/A   Overcast
3:32 AM 46.4 °F 39.5 °F 44.6 °F 93% 30.12 in 10.0 mi East 17.3 mph 24.2 mph 0.00 in   Overcast
3:53 AM 46.9 °F - 44.1 °F 90% 30.10 in 10.0 mi East 16.1 mph 24.2 mph 0.00 in   Overcast
4:53 AM 46.0 °F 40.2 °F 44.1 °F 93% 30.09 in 10.0 mi East 12.7 mph 25.3 mph N/A   Overcast
5:53 AM 46.0 °F 39.6 °F 44.1 °F 93% 30.05 in 10.0 mi East 15.0 mph 21.9 mph N/A   Overcast
6:31 AM 46.4 °F 40.1 °F 44.6 °F 93% 30.04 in 10.0 mi East 15.0 mph - N/A   Overcast
6:53 AM 46.0 °F 40.2 °F 44.1 °F 93% 30.04 in 10.0 mi East 12.7 mph - N/A   Overcast
7:53 AM 46.0 °F 40.6 °F 45.0 °F 96% 30.02 in 10.0 mi East 11.5 mph 19.6 mph N/A   Overcast
8:35 AM 46.4 °F 41.1 °F 44.6 °F 93% 30.03 in 7.0 mi East 11.5 mph - 0.00 in Rain Light Rain
8:53 AM 46.9 °F - 46.0 °F 97% 30.04 in 10.0 mi East 9.2 mph - 0.01 in   Overcast
9:24 AM 46.4 °F 41.1 °F 46.4 °F 100% 30.02 in 9.0 mi East 11.5 mph - 0.00 in   Overcast
9:39 AM 48.2 °F - 46.4 °F 93% 30.00 in 10.0 mi East 12.7 mph 20.7 mph 0.00 in   Overcast
9:53 AM 48.0 °F - 46.9 °F 96% 30.00 in 10.0 mi East 9.2 mph - 0.00 in   Overcast
10:01 AM 48.2 °F - 46.4 °F 93% 30.00 in 10.0 mi East 10.4 mph - N/A   Overcast
10:27 AM 48.2 °F - 48.2 °F 100% 30.00 in 2.5 mi East 10.4 mph - 0.00 in Rain Light Rain
10:36 AM 48.2 °F - 48.2 °F 100% 29.98 in 4.0 mi East 10.4 mph - 0.00 in Rain Light Rain
10:53 AM 48.0 °F - 48.0 °F 100% 29.97 in 6.0 mi East 12.7 mph 18.4 mph 0.00 in   Overcast
11:51 AM 51.8 °F - 50.0 °F 94% 29.92 in 10.0 mi East 12.7 mph - N/A   Overcast
11:53 AM 51.1 °F - 50.0 °F 96% 29.92 in 10.0 mi East 9.2 mph - N/A   Overcast
12:53 PM 55.0 °F - 52.0 °F 89% 29.87 in 10.0 mi ESE 5.8 mph - N/A   Overcast
1:26 PM 55.4 °F - 53.6 °F 94% 29.85 in 10.0 mi ESE 8.1 mph - N/A   Overcast
1:53 PM 54.0 °F - 53.1 °F 97% 29.83 in 10.0 mi East 8.1 mph - 0.00 in   Overcast
2:53 PM 57.9 °F - 55.0 °F 90% 29.81 in 10.0 mi SE 8.1 mph - N/A   Overcast
3:53 PM 55.9 °F - 54.0 °F 93% 29.82 in 9.0 mi SW 12.7 mph 23.0 mph 0.02 in Rain Light Rain
4:08 PM 55.4 °F - 55.4 °F 100% 29.83 in 2.5 mi SW 15.0 mph - 0.07 in Rain Rain
4:19 PM 55.4 °F - 55.4 °F 100% 29.84 in 7.0 mi SW 9.2 mph 20.7 mph 0.08 in Rain Light Rain
4:29 PM 53.6 °F - 53.6 °F 100% 29.84 in 8.0 mi SW 10.4 mph - 0.08 in Rain Light Rain
4:53 PM 55.0 °F - 55.0 °F 100% 29.83 in 10.0 mi SW 8.1 mph - 0.09 in Rain Light Rain
5:53 PM 54.0 °F - 54.0 °F 100% 29.85 in 10.0 mi SW 6.9 mph - N/A   Mostly Cloudy
6:53 PM 52.0 °F - 52.0 °F 100% 29.85 in 10.0 mi SSW 6.9 mph - 0.01 in Rain Light Rain
7:53 PM 50.0 °F - 50.0 °F 100% 29.85 in 10.0 mi SSW 6.9 mph - 0.00 in   Clear
8:41 PM 50.0 °F - 50.0 °F 100% 29.86 in 10.0 mi SSW 9.2 mph - N/A   Mostly Cloudy
8:53 PM 50.0 °F - 50.0 °F 100% 29.86 in 10.0 mi SSW 9.2 mph 17.3 mph N/A   Overcast
9:09 PM 50.0 °F - 50.0 °F 100% 29.87 in 10.0 mi SSW 10.4 mph - N/A   Overcast
9:33 PM 50.0 °F - 50.0 °F 100% 29.87 in 10.0 mi SSW 12.7 mph 19.6 mph N/A   Overcast
10:31 PM 48.2 °F - 48.2 °F 100% 29.86 in 10.0 mi SSW 10.4 mph - N/A   Scattered Clouds
10:53 PM 48.9 °F - 48.9 °F 100% 29.86 in 10.0 mi SSW 10.4 mph - N/A   Mostly Cloudy
11:53 PM 48.9 °F - 48.9 °F 100% 29.86 in 10.0 mi SSW 11.5 mph - N/A   Overcast